Wind_Speed
6 6 4 5 7 6 8 7 4 2 3 1 1 3 3 5 8 9 8 9 7 7 7 8 7 7 7 6 6 6 7 8 7 5 5 4 5 7 7 8 8 9 10 10
6 5 6 5 8 5 5 5 4 2 1 4 3 4 6 11 11 8 7 4 5 6 6 5 6 6 6 7 5 3 3 3 5 6 8 10 11 11 11 12 11 11 12 13
9 5 11 7 4 3 4 5 4 3 4 4 6 7 9 11 10 9 7 7 8 8 10 10 8 8 8 7 6 4 4 3 4 6 9 10 12 12 13 12 13 14 16 17
6 8 10 6 5 6 6 3 5 7 7 8 6 12 11 9 9 10 10 13 13 15 14 12 8 6 5 5 4 2 1 3 5 5 7 9 12 12 12 16 18 19 20 21
4 5 8 6 5 6 0 4 7 8 5 7 4 4 14 12 10 11 9 10 10 10 8 7 5 2 3 3 3 5 5 5 5 6 8 11 14 15 17 20 22 22 25 27
10 8 9 7 5 5 5 7 7 5 5 4 4 7 12 13 11 12 10 8 8 10 11 9 7 8 8 10 10 11 11 10 12 13 14 17 19 20 24 26 29 31 33 35
9 11 8 6 7 6 8 8 10 9 9 10 3 5 11 10 11 15 14 12 13 15 11 12 16 15 15 15 16 17 19 19 23 25 27 28 29 30 32 33 36 38 40 42
11 13 9 9 12 6 13 12 7 4 3 12 4 5 9 13 13 17 20 19 17 16 16 14 17 18 18 16 16 16 17 20 23 26 27 27 27 29 31 35 37 42 45 43
16 20 7 7 8 7 12 10 4 6 2 7 7 4 5 8 7 13 21 20 16 14 13 11 13 13 16 13 7 8 10 13 18 19 21 25 27 31 35 39 42 41 39 41
5 7 5 7 13 13 10 8 9 8 2 3 7 4 9 11 6 12 18 18 16 13 11 8 6 3 3 5 8 12 16 19 22 25 28 31 34 37 40 41 38 39 41 40
5 12 10 11 14 13 14 11 8 2 5 4 5 5 6 11 12 13 17 15 12 9 7 6 5 5 6 9 13 17 20 24 28 31 34 37 39 36 35 35 33 35 35 34
11 10 16 20 10 16 14 13 12 11 10 7 9 5 7 13 13 16 17 15 12 9 8 7 7 8 10 13 17 20 24 29 33 36 36 34 34 33 33 33 35 37 38 38
9 11 17 13 10 15 13 15 14 9 6 6 11 8 2 11 15 18 16 13 11 11 9 9 9 10 13 18 23 29 33 33 31 31 31 32 32 31 31 30 31 32 33 35
15 16 17 18 11 12 12 15 16 13 11 9 12 5 7 10 13 17 16 14 12 11 11 11 12 16 21 27 33 37 34 32 32 31 32 33 32 31 29 31 32 31 33 33
18 12 13 10 6 9 10 13 15 12 7 9 6 4 7 10 11 12 14 15 14 14 12 14 18 22 27 33 37 35 34 33 32 32 32 31 31 32 36 37 34 32 32 34
28 18 14 4 2 6 8 10 10 8 4 4 4 3 7 9 13 14 16 16 15 14 16 19 23 27 33 36 35 33 33 33 33 32 31 32 33 36 37 34 34 35 33 31
20 15 15 12 4 1 10 10 8 6 6 2 4 3 4 4 11 16 17 16 15 17 19 21 26 31 34 33 32 31 33 33 34 34 32 31 34 34 35 31 30 30 27 26
22 14 7 13 3 3 8 9 7 6 10 7 6 3 3 5 11 16 17 16 16 18 20 24 29 32 32 30 30 31 33 34 34 32 30 32 34 35 36 33 32 31 27 26
21 17 18 7 7 10 16 19 14 12 6 5 4 5 7 8 14 16 16 16 17 18 23 27 30 31 28 29 31 33 34 34 31 28 30 34 36 37 37 34 30 27 27 27
18 13 22 33 26 16 14 15 11 8 8 4 2 4 6 5 8 11 13 15 17 22 26 28 28 27 29 30 32 33 33 31 28 30 31 34 36 35 35 32 29 29 32 32
24 23 23 19 15 6 10 12 10 7 3 3 7 6 5 8 13 16 15 16 21 24 26 26 25 28 30 31 32 31 30 28 28 30 32 34 35 33 31 29 30 31 34 33
12 19 21 18 18 9 8 10 9 5 6 8 7 8 10 13 13 15 18 21 22 24 25 24 25 27 32 33 32 30 28 28 29 31 33 33 32 31 30 30 30 31 33 32
4 6 4 7 2 5 8 8 5 6 7 7 7 9 11 13 15 17 19 21 24 23 22 24 26 29 30 31 31 28 27 29 32 34 35 33 29 28 30 31 29 29 31 32
11 7 6 5 4 5 6 2 6 8 9 8 10 12 12 13 16 19 22 22 20 20 22 25 28 28 29 28 28 28 30 32 33 34 32 28 24 25 28 29 29 29 29 32
11 8 8 5 5 5 8 11 10 10 11 12 12 12 13 16 17 18 18 18 19 21 24 26 27 27 27 26 26 29 31 31 30 28 29 26 25 26 26 27 29 28 29 29
15 10 8 8 11 13 15 12 12 14 14 14 13 13 15 15 17 17 18 19 21 23 24 26 26 25 24 25 28 31 30 29 25 25 25 25 26 26 27 26 24 28 26 25
Wind_Direction
280 284 220 186 187 160 155 160 161 219 257 68 160 167 194 143 139 140 140 100 102 128 169 170 145 144 158 164 175 188 190 199 210 211 219 229 226 228 234 243 242 243 238 240
275 255 237 178 177 167 165 186 191 208 267 141 89 116 151 156 151 148 153 140 81 105 146 139 142 132 130 130 146 165 199 225 220 216 209 210 220 227 237 246 252 251 248 251
240 201 162 150 178 189 192 202 199 171 169 179 143 131 148 167 164 171 164 152 141 154 154 145 150 144 137 121 113 135 169 201 227 242 239 236 238 239 247 259 260 260 259 257
210 212 202 224 225 208 167 224 202 188 193 126 223 123 162 166 163 160 155 152 146 150 145 148 149 133 141 163 154 169 221 232 254 276 278 274 271 269 270 266 264 262 261 263
204 196 221 215 214 174 23 152 162 174 158 180 151 231 149 171 174 171 162 164 160 148 145 146 136 155 224 258 257 247 249 256 262 268 274 272 275 278 273 272 272 269 268 267
237 247 209 194 203 194 136 126 138 166 205 191 129 265 153 178 184 172 167 171 178 188 168 176 207 243 257 265 268 273 271 274 275 277 279 282 282 283 280 281 277 274 272 270
232 232 222 206 196 205 181 185 172 193 197 82 128 239 112 153 181 187 194 203 220 216 226 248 250 252 255 254 254 256 261 261 267 271 273 276 275 274 274 273 273 272 272 271
211 197 199 208 195 207 203 225 298 201 208 117 144 197 139 181 185 195 207 217 224 226 236 245 255 251 255 263 274 279 278 270 271 275 280 284 290 290 291 290 285 278 274 273
157 233 202 216 192 177 196 214 251 287 234 261 131 160 147 193 216 207 205 210 228 242 260 276 258 256 259 267 275 290 292 284 280 282 285 281 280 281 281 280 281 283 282 282
247 226 225 220 206 206 200 210 214 223 198 266 135 227 117 161 173 191 199 216 231 254 271 279 264 232 235 263 282 289 285 281 279 279 278 275 272 278 285 282 281 280 283 287
222 210 233 216 212 209 209 217 230 272 270 308 220 152 189 184 206 207 215 223 238 249 243 233 222 226 270 291 303 299 291 286 285 285 285 288 292 292 289 285 282 282 284 282
219 228 209 228 199 201 211 232 215 223 183 238 302 81 195 212 215 220 223 226 230 218 212 219 237 273 299 304 299 300 302 296 290 290 295 299 300 300 295 291 287 285 283 281
244 234 234 203 236 219 211 209 228 231 244 204 281 115 174 218 225 220 220 215 207 208 224 247 274 294 300 306 315 318 318 317 316 316 314 313 311 307 304 301 297 293 289 287
239 254 250 283 196 181 199 203 206 213 215 171 242 122 234 239 233 215 207 201 205 223 245 262 283 298 305 317 323 324 320 317 320 319 319 317 316 318 318 316 310 304 301 297
208 210 277 284 251 193 189 188 189 203 239 257 18 317 215 231 208 195 205 206 220 236 259 286 298 309 319 324 324 321 320 320 321 321 320 320 322 324 321 317 312 309 303 301
207 219 222 214 342 188 187 186 191 204 215 252 288 244 183 247 220 213 211 223 239 259 285 301 312 321 325 323 321 322 322 322 322 322 323 324 325 328 324 319 314 306 303 306
195 207 224 205 343 299 203 183 179 195 220 230 245 212 273 288 245 231 228 240 261 280 293 305 315 322 321 321 323 323 321 322 323 324 323 323 328 332 335 331 333 322 308 310
202 193 220 194 187 245 248 214 229 269 241 207 209 217 247 258 241 228 239 252 271 285 298 312 318 318 319 319 321 322 322 323 322 321 323 327 329 330 333 328 328 328 319 306
193 195 166 181 157 236 259 249 223 209 214 195 230 271 284 268 241 241 249 261 277 295 309 311 314 315 317 321 323 323 321 321 321 323 323 327 328 327 328 327 325 320 320 314
192 178 149 186 229 226 242 235 220 216 213 227 280 299 287 235 211 247 253 273 289 300 306 313 313 315 319 321 322 323 323 324 325 325 324 326 327 327 329 330 324 320 317 315
189 192 214 221 237 203 213 197 194 199 205 278 301 298 250 202 219 243 274 288 297 302 307 312 314 315 317 322 326 325 325 325 324 325 325 325 326 327 329 331 326 324 322 321
185 203 220 223 226 227 212 199 180 224 286 296 286 263 235 243 254 266 280 290 297 303 307 310 312 317 321 323 324 327 327 326 326 325 323 323 325 326 328 329 327 327 325 325
231 233 194 219 197 218 174 172 214 275 283 277 257 232 237 251 266 279 289 296 300 302 306 311 316 319 320 321 323 326 325 325 325 324 323 321 320 322 325 326 325 325 325 327
271 280 268 258 223 163 168 271 312 295 273 255 231 232 247 263 281 292 295 297 301 305 310 313 316 317 319 321 323 324 325 325 325 327 332 330 326 327 328 331 332 329 327 326
246 254 249 239 275 287 280 298 294 267 251 237 240 247 267 285 294 295 297 300 304 308 311 312 313 316 319 321 322 322 321 322 326 330 332 333 331 331 333 336 335 335 332 331
246 244 245 258 259 294 289 286 267 248 237 241 251 271 292 300 300 299 299 303 306 308 310 311 312 316 318 319 319 320 322 326 330 331 332 333 333 334 335 336 336 335 337 330
Height
3183 3184 3184 3184 3185 3185 3187 3187 3188 3189 3188 3190 3190 3191 3192 3191 3192 3193 3194 3194 3194 3193 3195 3195 3195 3196 3197 3197 3199 3199 3200 3200 3200 3201 3201 3200 3200 3200 3200 3200 3199 3198 3198 3198
3183 3183 3182 3183 3185 3186 3187 3187 3187 3188 3187 3189 3190 3190 3191 3192 3194 3195 3195 3195 3195 3195 3196 3196 3197 3198 3199 3199 3199 3200 3201 3201 3200 3200 3200 3200 3200 3199 3198 3198 3198 3197 3196 3196
3182 3183 3182 3183 3184 3185 3186 3186 3186 3187 3187 3188 3189 3191 3192 3193 3194 3195 3196 3196 3197 3197 3197 3198 3199 3200 3200 3201 3201 3201 3201 3201 3201 3200 3199 3200 3199 3199 3198 3198 3197 3196 3195 3194
3181 3182 3182 3183 3184 3185 3183 3184 3184 3186 3186 3181 3185 3187 3192 3194 3195 3195 3196 3197 3198 3198 3199 3200 3201 3201 3202 3202 3201 3202 3202 3201 3201 3201 3200 3200 3199 3199 3198 3196 3195 3194 3193 3192
3181 3181 3181 3182 3184 3182 3184 3182 3183 3185 3185 3183 3185 3179 3188 3192 3195 3196 3197 3199 3199 3200 3200 3201 3201 3202 3202 3202 3202 3201 3201 3200 3200 3199 3199 3198 3197 3197 3196 3194 3193 3191 3190 3188
3177 3178 3178 3181 3181 3181 3182 3182 3183 3184 3182 3177 3183 3180 3183 3188 3192 3194 3197 3198 3200 3200 3199 3200 3200 3200 3200 3200 3199 3199 3199 3198 3197 3196 3196 3194 3193 3192 3191 3189 3188 3186 3183 3181
3175 3176 3177 3177 3180 3180 3181 3182 3178 3177 3175 3172 3183 3182 3181 3187 3189 3191 3194 3196 3197 3196 3198 3198 3197 3197 3197 3196 3196 3196 3195 3195 3194 3193 3191 3190 3188 3186 3184 3183 3180 3178 3174 3171
3173 3173 3174 3175 3177 3179 3179 3177 3175 3174 3167 3172 3181 3179 3183 3184 3186 3188 3190 3192 3192 3193 3193 3193 3192 3192 3192 3192 3192 3191 3190 3190 3189 3187 3186 3184 3182 3180 3177 3174 3171 3167 3163 3161
3171 3168 3171 3172 3175 3178 3178 3178 3176 3174 3176 3173 3173 3180 3182 3183 3184 3184 3187 3189 3190 3190 3190 3189 3188 3188 3188 3188 3187 3187 3186 3185 3184 3183 3181 3178 3175 3172 3169 3165 3161 3157 3154 3151
3169 3168 3169 3171 3172 3173 3175 3176 3176 3174 3173 3171 3171 3175 3174 3182 3182 3183 3184 3186 3186 3186 3186 3186 3186 3186 3186 3185 3185 3184 3183 3182 3180 3178 3175 3171 3167 3162 3158 3154 3151 3147 3143 3140
3169 3171 3172 3170 3169 3170 3173 3173 3174 3173 3172 3166 3166 3169 3175 3178 3180 3181 3182 3182 3183 3183 3184 3184 3184 3184 3184 3184 3182 3180 3178 3175 3173 3169 3165 3160 3156 3152 3148 3144 3140 3137 3133 3130
3168 3170 3169 3166 3164 3166 3168 3168 3170 3168 3172 3172 3171 3171 3173 3176 3177 3178 3178 3179 3180 3181 3181 3181 3182 3181 3181 3180 3178 3176 3173 3170 3165 3160 3155 3150 3145 3141 3137 3133 3129 3125 3122 3118
3165 3165 3161 3161 3165 3163 3165 3165 3168 3167 3168 3169 3166 3169 3172 3174 3175 3175 3176 3177 3178 3178 3179 3179 3179 3178 3178 3175 3173 3169 3164 3159 3154 3149 3144 3139 3134 3130 3126 3122 3119 3115 3111 3107
3163 3162 3159 3159 3155 3157 3161 3161 3164 3166 3165 3164 3165 3167 3170 3171 3172 3172 3173 3175 3176 3177 3177 3177 3176 3175 3173 3168 3164 3160 3156 3151 3146 3141 3136 3131 3126 3122 3117 3112 3108 3103 3099 3095
3162 3160 3155 3155 3156 3155 3158 3159 3161 3164 3163 3164 3165 3167 3168 3169 3170 3171 3173 3174 3175 3175 3175 3174 3172 3169 3166 3162 3157 3153 3148 3143 3139 3134 3129 3124 3119 3114 3109 3103 3098 3094 3090 3086
3156 3158 3159 3157 3154 3155 3156 3156 3159 3162 3163 3165 3166 3167 3167 3166 3167 3169 3171 3172 3172 3172 3171 3169 3166 3163 3159 3155 3152 3146 3142 3137 3132 3127 3122 3116 3111 3107 3101 3095 3090 3085 3080 3076
3151 3155 3156 3155 3154 3154 3157 3157 3158 3159 3161 3163 3164 3165 3165 3165 3166 3167 3169 3170 3170 3168 3166 3164 3161 3158 3154 3149 3145 3141 3136 3131 3125 3120 3115 3110 3104 3099 3092 3086 3081 3076 3072 3068
3149 3151 3154 3152 3155 3154 3153 3154 3155 3159 3159 3160 3161 3162 3163 3164 3165 3165 3165 3166 3166 3164 3162 3159 3156 3152 3148 3144 3140 3135 3130 3124 3118 3113 3108 3102 3097 3092 3086 3080 3076 3070 3065 3061
3147 3149 3154 3156 3153 3158 3157 3153 3154 3156 3159 3158 3159 3160 3161 3161 3162 3162 3163 3163 3161 3159 3157 3154 3150 3146 3142 3137 3133 3128 3123 3118 3112 3106 3101 3096 3090 3085 3080 3075 3070 3065 3060 3056
3145 3145 3148 3154 3156 3147 3148 3149 3150 3152 3155 3155 3156 3157 3157 3158 3160 3161 3158 3157 3156 3154 3151 3148 3144 3140 3135 3132 3127 3122 3116 3110 3105 3100 3095 3090 3084 3079 3074 3069 3064 3059 3053 3049
3141 3144 3145 3146 3147 3143 3143 3145 3147 3152 3155 3152 3153 3154 3153 3155 3156 3155 3154 3153 3151 3148 3145 3141 3138 3134 3129 3125 3121 3115 3110 3105 3100 3095 3090 3084 3079 3074 3069 3064 3058 3053 3047 3042
3139 3142 3141 3143 3142 3140 3142 3144 3148 3149 3149 3149 3150 3151 3151 3150 3150 3150 3149 3148 3145 3142 3139 3136 3133 3129 3123 3118 3114 3109 3104 3100 3094 3090 3085 3079 3074 3069 3064 3059 3053 3047 3041 3036
3138 3137 3137 3139 3137 3138 3139 3143 3145 3145 3145 3146 3146 3147 3147 3147 3147 3146 3144 3142 3139 3136 3133 3130 3127 3123 3118 3113 3108 3104 3099 3094 3090 3084 3079 3073 3069 3064 3059 3054 3049 3042 3036 3030
3134 3135 3136 3137 3138 3138 3139 3141 3141 3142 3142 3142 3143 3144 3144 3144 3142 3140 3138 3135 3133 3131 3128 3124 3121 3117 3112 3108 3103 3098 3093 3089 3084 3078 3072 3068 3064 3060 3055 3049 3044 3037 3031 3025
3133 3133 3134 3135 3137 3138 3138 3138 3139 3139 3138 3139 3139 3140 3140 3139 3138 3136 3133 3130 3128 3125 3122 3118 3115 3111 3107 3102 3098 3093 3089 3084 3079 3074 3069 3064 3060 3056 3051 3045 3038 3034 3027 3020
3128 3130 3132 3133 3134 3134 3134 3134 3135 3134 3134 3134 3135 3135 3135 3134 3133 3130 3128 3125 3122 3119 3116 3113 3109 3105 3101 3097 3093 3088 3083 3078 3074 3070 3065 3060 3056 3051 3046 3042 3038 3030 3025 3018